Greenville, AL

1:08 AM CDT on May 28, 2017 (GMT -0500)
Greenville Municipal

Weather History for KPRN - November, 2012

Change the Weather History Date:

Thursday, November 15, 2012

  Actual Average Record
Temperature  
Mean Temperature 47 °F -  
Max Temperature 55 °F 68 °F 85 °F (1955)
Min Temperature 39 °F 44 °F 19 °F (1969)
Degree Days  
Heating Degree Days 18    
Moisture  
Dew Point 43 °F    
Average Humidity 82    
Maximum Humidity 93    
Minimum Humidity 62    
Precipitation  
Precipitation 0.00 in - - ()
Sea Level Pressure  
Sea Level Pressure 30.24 in    
Wind  
Wind Speed 5 mph (NE)    
Max Wind Speed 9 mph    
Max Gust Speed -    
Visibility 10 miles    
Events      
Averages and records for this station are not official NWS values.
T = Trace of Precipitation, MM = Missing Value Source: NWS Daily Summary

Daily Weather History Graph

Daily Weather History Graph

Search for Another Location

Airport or City:

Trip Planner

Search our weather history database for the weather conditions in past years. The results will help you decide how hot, cold, wet, or windy it might be!

Date:

Astronomy

Nov. 15, 2012 Rise Set
Actual Time 6:15 AM CST 4:46 PM CST
Civil Twilight 5:49 AM CST 5:12 PM CST
Nautical Twilight 5:19 AM CST 5:42 PM CST
Astronomical Twilight 4:50 AM CST 6:11 PM CST
Moon 8:06 AM CST (11/15) 6:41 PM CST (11/15)
Length of Visible Light 11h 23m
Length of Day
10h 31m
Waxing Crescent, 5% of the Moon is Illuminated
Nov 15
Waxing Crescent
Nov 20
First Quarter
Nov 28
Full
Dec 6
Last Quarter
Dec 13
New

Hourly Weather History & Observations

Time (CST) Temp. Dew Point Humidity Pressure Visibility Wind Dir Wind Speed Gust Speed Precip Events Conditions
12:56 AM 51.1 °F 46.0 °F 83% 30.22 in 10.0 mi ENE 3.5 mph - N/A   Overcast
1:48 AM 50.0 °F 46.4 °F 87% 30.22 in 10.0 mi NE 4.6 mph - N/A   Overcast
1:56 AM 50.0 °F 46.0 °F 86% 30.22 in 9.0 mi NE 4.6 mph - N/A   Overcast
2:56 AM 50.0 °F 46.0 °F 86% 30.22 in 8.0 mi NNE 4.6 mph - N/A   Overcast
3:56 AM 48.9 °F 45.0 °F 86% 30.22 in 9.0 mi NNE 6.9 mph - N/A   Overcast
4:04 AM 48.2 °F 44.6 °F 87% 30.22 in 9.0 mi NNE 4.6 mph - N/A   Overcast
4:56 AM 48.9 °F 45.0 °F 86% 30.23 in 9.0 mi NNE 6.9 mph - N/A   Overcast
5:56 AM 48.0 °F 44.1 °F 86% 30.23 in 10.0 mi NNE 3.5 mph - N/A   Overcast
6:56 AM 48.0 °F 44.1 °F 86% 30.25 in 10.0 mi NNE 4.6 mph - N/A   Overcast
7:18 AM 48.2 °F 44.6 °F 87% 30.25 in 10.0 mi NNE 8.1 mph - N/A   Overcast
7:56 AM 48.9 °F 44.1 °F 83% 30.27 in 10.0 mi NNE 6.9 mph - N/A   Overcast
8:56 AM 51.1 °F 44.1 °F 77% 30.28 in 10.0 mi NE 8.1 mph - N/A   Overcast
9:09 AM 51.8 °F 44.6 °F 76% 30.28 in 10.0 mi NE 4.6 mph - N/A   Overcast
9:56 AM 51.1 °F 44.1 °F 77% 30.27 in 10.0 mi NE 9.2 mph - N/A   Overcast
10:56 AM 50.0 °F 44.1 °F 80% 30.27 in 10.0 mi ENE 8.1 mph - N/A   Overcast
11:56 AM 52.0 °F 44.1 °F 74% 30.25 in 10.0 mi NE 8.1 mph - N/A   Overcast
12:56 PM 52.0 °F 44.1 °F 74% 30.23 in 10.0 mi NE 9.2 mph - N/A   Overcast
1:21 PM 53.6 °F 42.8 °F 67% 30.23 in 10.0 mi North 8.1 mph - N/A   Overcast
1:56 PM 54.0 °F 43.0 °F 66% 30.22 in 10.0 mi NNE 4.6 mph - N/A   Overcast
2:49 PM 55.4 °F 42.8 °F 63% 30.22 in 10.0 mi Calm Calm - N/A   Scattered Clouds
2:56 PM 55.0 °F 42.1 °F 62% 30.21 in 10.0 mi ENE 4.6 mph - N/A   Scattered Clouds
4:56 PM 50.0 °F 42.1 °F 74% 30.22 in 10.0 mi NE 3.5 mph - N/A   Clear
5:56 PM 46.9 °F 43.0 °F 86% 30.23 in 10.0 mi Calm Calm - N/A   Clear
6:56 PM 44.1 °F 41.0 °F 89% 30.24 in 10.0 mi Calm Calm - N/A   Clear
7:56 PM 42.1 °F 39.9 °F 92% 30.25 in 10.0 mi Calm Calm - N/A   Clear
8:56 PM 42.1 °F 39.0 °F 89% 30.25 in 10.0 mi Calm Calm - N/A   Clear
9:56 PM 41.0 °F 39.0 °F 93% 30.25 in 10.0 mi Calm Calm - N/A   Clear
10:56 PM 39.9 °F 37.9 °F 93% 30.25 in 9.0 mi Calm Calm - N/A   Clear
11:56 PM 41.0 °F 39.0 °F 93% 30.25 in 9.0 mi Calm Calm - N/A   Clear